| time (UTC) | temp F | wind direction | speed MPH | gust MPH | rain 1hr in | rain 24hr in | rain mn in | humidity % | barometer mb |
| 20260504100320 | 37 | 148 | 0.0 | 0.0 | 0.00 | 0.00 | 0.00 | 94 | 1012.5 |
| 20260504081926 | 36 | 148 | 0.0 | 0.0 | 0.00 | 0.00 | 0.00 | 94 | 1012.1 |
| 20260504080920 | 36 | 148 | 0.0 | 0.0 | 0.00 | 0.00 | 0.00 | 94 | 1012.1 |
| 20260504050216 | 38 | 148 | 0.0 | 0.0 | 0.00 | 0.00 | 0.00 | 88 | 1011.5 |
| 20260504045223 | 38 | 148 | 0.0 | 0.0 | 0.00 | 0.00 | 0.00 | 87 | 1011.4 |
| 20260504044219 | 38 | 148 | 0.0 | 0.0 | 0.00 | 0.00 | 0.00 | 86 | 1011.4 |
| 20260504043224 | 39 | 148 | 0.0 | 0.0 | 0.00 | 0.00 | 0.00 | 85 | 1011.4 |
| 20260504042216 | 39 | 148 | 0.0 | 0.0 | 0.00 | 0.00 | 0.00 | 85 | 1011.3 |
| 20260504041211 | 39 | 148 | 0.0 | 0.0 | 0.00 | 0.00 | 0.00 | 83 | 1011.3 |
| 20260504040150 | 40 | 148 | 0.0 | 0.0 | 0.00 | 0.00 | 0.00 | 82 | 1011.3 |
| 20260504035139 | 40 | 148 | 0.0 | 0.0 | 0.00 | 0.00 | 0.00 | 82 | 1011.2 |
| 20260504034122 | 40 | 148 | 0.0 | 0.0 | 0.00 | 0.00 | 0.00 | 82 | 1011.3 |
| 20260504031954 | 40 | 148 | 0.0 | 0.0 | 0.00 | 0.00 | 0.00 | 78 | 1011.2 |
| 20260504030956 | 41 | 148 | 0.0 | 0.0 | 0.00 | 0.00 | 0.00 | 78 | 1011.1 |
| 20260504025933 | 41 | 148 | 0.0 | 0.0 | 0.00 | 0.00 | 0.00 | 75 | 1011.1 |
| 20260504024909 | 42 | 148 | 0.0 | 0.0 | 0.00 | 0.00 | 0.00 | 73 | 1011.2 |
| 20260504023902 | 42 | 148 | 0.0 | 0.0 | 0.00 | 0.00 | 0.00 | 71 | 1011.2 |
| 20260504022852 | 43 | 148 | 0.0 | 0.0 | 0.00 | 0.00 | 0.00 | 71 | 1011.3 |
| 20260504021843 | 44 | 148 | 0.0 | 0.0 | 0.00 | 0.00 | 0.00 | 69 | 1011.2 |
| 20260504015718 | 44 | 148 | 0.0 | 0.0 | 0.00 | 0.00 | 0.00 | 68 | 1011.2 |
| 20260504014730 | 45 | 148 | 0.0 | 0.0 | 0.00 | 0.00 | 0.00 | 66 | 1011.1 |
| 20260504013719 | 46 | 148 | 0.0 | 0.0 | 0.00 | 0.00 | 0.00 | 63 | 1011.0 |
| 20260504011533 | 48 | 148 | 0.0 | 0.0 | 0.00 | 0.00 | 0.00 | 57 | 1010.9 |
| 20260504010535 | 50 | 148 | 0.0 | 0.0 | 0.00 | 0.00 | 0.00 | 54 | 1010.6 |
| 20260504005508 | 50 | 148 | 0.0 | 0.0 | 0.00 | 0.00 | 0.00 | 52 | 1010.5 |
| 20260504004454 | 51 | 148 | 0.0 | 0.0 | 0.00 | 0.00 | 0.00 | 50 | 1010.4 |
| 20260504003421 | 52 | 148 | 0.0 | 0.0 | 0.00 | 0.00 | 0.00 | 47 | 1010.2 |
| 20260504002406 | 53 | 148 | 0.0 | 0.0 | 0.00 | 0.00 | 0.00 | 46 | 1010.1 |
| 20260504001427 | 54 | 148 | 0.0 | 0.0 | 0.00 | 0.00 | 0.00 | 46 | 1010.0 |
| 20260504000427 | 55 | 148 | 0.0 | 0.0 | 0.00 | 0.00 | 0.00 | 41 | 1009.8 |
| 20260503235430 | 56 | 148 | 0.0 | 0.0 | 0.00 | 0.00 | 0.00 | 38 | 1009.6 |
| 20260503234453 | 56 | 156 | 0.0 | 0.0 | 0.00 | 0.00 | 0.00 | 36 | 1009.5 |
| 20260503233453 | 57 | 172 | 0.0 | 0.0 | 0.00 | 0.00 | 0.00 | 35 | 1009.4 |
| 20260503231308 | 57 | 164 | 0.0 | 6.0 | 0.00 | 0.00 | 0.00 | 33 | 1009.1 |
| 20260503230239 | 58 | 176 | 0.0 | 6.0 | 0.00 | 0.00 | 0.00 | 31 | 1009.0 |
| 20260503225235 | 59 | 174 | 0.0 | 6.0 | 0.00 | 0.00 | 0.00 | 31 | 1009.0 |
| 20260503224229 | 60 | 168 | 0.0 | 4.0 | 0.00 | 0.00 | 0.00 | 30 | 1008.9 |
| 20260503223159 | 60 | 170 | 0.0 | 9.0 | 0.00 | 0.00 | 0.00 | 29 | 1008.9 |
| 20260503222209 | 60 | 172 | 2.0 | 9.0 | 0.00 | 0.00 | 0.00 | 31 | 1008.8 |
| 20260503221215 | 60 | 120 | 2.0 | 15.0 | 0.00 | 0.00 | 0.00 | 30 | 1008.8 |
| 20260503220154 | 60 | 203 | 1.0 | 10.0 | 0.00 | 0.00 | 0.00 | 31 | 1008.8 |
| 20260503215126 | 60 | 153 | 2.0 | 8.0 | 0.00 | 0.00 | 0.00 | 32 | 1008.9 |
| 20260503214129 | 60 | 154 | 2.0 | 7.0 | 0.00 | 0.00 | 0.00 | 31 | 1008.8 |
| 20260503213135 | 60 | 159 | 2.0 | 6.0 | 0.00 | 0.00 | 0.00 | 31 | 1008.7 |
| 20260503210955 | 59 | 141 | 3.0 | 15.0 | 0.00 | 0.00 | 0.00 | 33 | 1008.9 |
| 20260503205945 | 59 | 125 | 2.0 | 13.0 | 0.00 | 0.00 | 0.00 | 33 | 1008.8 |
| 20260503204957 | 59 | 145 | 3.0 | 13.0 | 0.00 | 0.00 | 0.00 | 33 | 1008.8 |
| 20260503203926 | 60 | 114 | 3.0 | 11.0 | 0.00 | 0.00 | 0.00 | 32 | 1008.8 |
| 20260503201812 | 59 | 228 | 2.0 | 12.0 | 0.00 | 0.00 | 0.00 | 35 | 1008.6 |
| 20260503200830 | 59 | 146 | 3.0 | 12.0 | 0.00 | 0.00 | 0.00 | 36 | 1008.6 |
| 20260503195755 | 59 | 291 | 2.0 | 12.0 | 0.00 | 0.00 | 0.00 | 37 | 1008.9 |
| 20260503194728 | 58 | 174 | 2.0 | 11.0 | 0.00 | 0.00 | 0.00 | 38 | 1008.9 |
| 20260503193737 | 57 | 160 | 2.0 | 10.0 | 0.00 | 0.00 | 0.00 | 38 | 1009.0 |
| 20260503191659 | 57 | 117 | 1.0 | 9.0 | 0.00 | 0.00 | 0.00 | 45 | 1009.3 |
| 20260503190709 | 56 | 188 | 2.0 | 8.0 | 0.00 | 0.00 | 0.00 | 40 | 1009.4 |
| 20260503185726 | 57 | 285 | 2.0 | 9.0 | 0.00 | 0.00 | 0.00 | 39 | 1009.3 |
| 20260503184740 | 57 | 69 | 1.0 | 10.0 | 0.00 | 0.00 | 0.00 | 41 | 1009.3 |
| 20260503183803 | 57 | 165 | 3.0 | 10.0 | 0.00 | 0.00 | 0.00 | 40 | 1009.6 |
| 20260503182822 | 57 | 139 | 3.0 | 10.0 | 0.00 | 0.00 | 0.00 | 40 | 1009.5 |
| 20260503181829 | 56 | 109 | 2.0 | 9.0 | 0.00 | 0.00 | 0.00 | 39 | 1009.5 |
| 20260503180830 | 56 | 127 | 2.0 | 10.0 | 0.00 | 0.00 | 0.00 | 39 | 1009.5 |
| 20260503174620 | 57 | 139 | 3.0 | 11.0 | 0.00 | 0.00 | 0.00 | 38 | 1009.3 |
| 20260503173551 | 56 | 111 | 2.0 | 16.0 | 0.00 | 0.00 | 0.00 | 39 | 1009.3 |
| 20260503171430 | 56 | 156 | 3.0 | 10.0 | 0.00 | 0.00 | 0.00 | 38 | 1009.4 |
| 20260503170407 | 56 | 154 | 2.0 | 10.0 | 0.00 | 0.00 | 0.00 | 41 | 1009.4 |
| 20260503150324 | 51 | 102 | 2.0 | 10.0 | 0.00 | 0.00 | 0.00 | 52 | 1010.0 |
| 20260503140104 | 51 | 214 | 3.0 | 12.0 | 0.00 | 0.00 | 0.00 | 54 | 1010.2 |
| 20260503130926 | 50 | 149 | 3.0 | 12.0 | 0.00 | 0.00 | 0.00 | 56 | 1009.9 |
| 20260503110643 | 43 | 170 | 0.0 | 1.0 | 0.00 | 0.00 | 0.00 | 69 | 1009.8 |